Location: Canyon Rim
(40.8777°N, 111.8641°W)
Time: 07:02:38
(UTC+00:00)

X-37B - Pass Details

Date: 24 April 2021
Orbit: 386 x 389 km, 45.0° (Epoch: 08 May)

Event Time Altitude Azimuth Distance (km) Brightness Sun altitude
Exits shadow 09:59:18 25° 45° (NE) 817 2.9 -25.5°
Drops below altitude 10° 10:01:03 10° 68° (ENE) 1,415 4.3 -25.2°
Sets 10:03:13 0° 77° (ENE) 2,269 5.3 -25.0°
